Temp
12 7 8 12 12 12 12 14 14 13 13 14 12 11 11 14 14 14 15 15 15 15 15 15 14 14 13 12 12 12 12 12 12 12 12 12 12 11 11 11 11 11 10 10
9 9 11 11 12 13 13 14 14 13 13 13 12 12 11 12 13 15 15 14 15 14 14 14 13 13 12 12 12 12 12 12 12 12 12 12 11 11 11 11 11 11 10 10
9 11 11 12 11 13 11 13 12 14 12 12 12 12 14 12 12 12 14 14 14 14 14 13 12 12 12 11 11 11 12 12 12 12 11 11 11 11 11 11 11 10 10 10
9 10 12 11 10 11 14 11 12 12 12 10 10 12 12 12 12 11 11 12 13 13 12 12 12 11 11 11 11 11 11 11 11 11 11 11 11 11 11 10 10 10 10 9
10 10 11 11 10 10 12 10 11 10 9 9 11 7 11 10 12 10 10 11 11 13 13 12 12 11 10 10 10 11 11 11 11 11 11 11 11 11 11 10 10 10 9 9
8 9 9 10 9 10 10 10 7 5 6 6 10 7 9 11 12 12 10 11 12 12 12 11 10 10 10 10 10 11 11 11 10 10 10 10 10 10 10 10 9 9 9 8
8 8 8 9 10 10 9 7 5 8 6 8 7 5 9 11 11 11 10 12 12 12 12 11 11 11 10 10 10 10 10 10 10 10 10 10 10 10 10 9 9 8 8 8
6 7 8 8 9 9 9 8 6 11 8 7 8 8 9 10 11 11 12 12 11 11 12 11 11 11 10 10 10 10 10 10 10 10 10 9 9 9 9 9 8 8 8 8
8 8 8 8 8 9 9 7 8 6 6 7 6 8 10 10 10 11 10 10 11 12 11 11 11 10 10 10 10 10 9 9 9 9 9 9 9 8 8 8 8 8 8 7
9 8 7 8 8 8 9 7 8 4 12 12 7 8 7 10 10 9 7 9 11 11 11 10 10 10 10 10 10 10 9 9 9 9 9 9 8 8 8 8 7 7 7 7
9 8 7 8 7 7 7 7 6 6 6 10 10 8 6 7 8 8 8 8 9 9 10 10 10 10 10 10 9 9 9 9 8 8 8 8 8 7 7 7 7 7 7 6
8 6 4 9 7 7 8 8 7 7 9 5 6 6 7 7 7 7 7 8 8 8 8 9 10 10 10 10 9 9 8 8 8 8 8 8 7 7 7 6 6 6 6 6
8 7 4 7 7 7 7 7 7 5 4 5 7 8 6 5 5 6 6 6 7 7 8 8 8 9 9 9 9 9 8 8 8 7 7 7 6 6 6 6 6 5 5 5
7 5 8 8 10 6 7 6 6 7 4 6 5 9 7 5 4 4 5 5 6 6 6 6 6 6 7 8 9 8 7 7 6 6 6 6 5 5 5 5 5 4 4 4
6 8 5 6 6 7 8 8 5 4 6 8 8 7 8 5 3 5 5 5 5 5 5 5 5 5 5 6 6 6 6 6 6 5 5 4 4 4 4 4 3 3 3 3
4 6 6 8 7 5 6 5 5 5 6 5 6 7 7 6 6 5 5 5 4 4 4 4 4 5 5 5 5 4 4 4 4 4 4 3 3 3 3 2 2 2 2 2
5 4 5 8 6 6 7 6 5 5 5 7 7 9 3 3 4 4 4 5 4 4 4 4 4 4 4 4 4 4 4 4 4 3 3 3 2 2 2 1 1 1 1 1
4 4 4 4 6 6 9 8 7 6 7 5 6 5 4 4 4 4 4 4 4 3 3 3 3 3 3 3 3 2 2 2 2 2 2 2 1 1 0 -0 -0 -0 -0 -0
4 4 5 6 4 6 10 7 7 7 8 5 5 2 3 3 3 3 3 3 3 3 3 3 3 2 2 2 2 2 2 1 1 1 1 0 -0 -0 -1 -1 -1 -1 -1 -1
3 3 4 3 5 7 8 7 7 7 6 4 3 1 2 3 1 0 3 3 3 2 2 2 1 1 1 1 1 1 0 0 -0 -1 -1 -1 -1 -1 -1 -1 -2 -2 -2 -2
3 3 4 3 3 4 5 7 7 8 7 4 4 3 3 1 3 3 2 2 2 2 1 1 1 1 1 1 1 0 -0 -0 -1 -1 -1 -2 -2 -2 -2 -2 -2 -2 -2 -2
3 2 2 2 2 3 6 6 7 4 3 4 4 4 3 3 3 3 2 1 1 1 1 1 1 1 0 0 -0 -0 -1 -1 -2 -2 -2 -2 -2 -3 -3 -3 -3 -3 -3 -3
5 4 4 4 4 4 4 4 5 5 5 3 3 3 3 2 2 1 -0 1 1 1 1 1 0 -0 -0 -0 -1 -1 -1 -1 -2 -2 -3 -3 -3 -3 -3 -4 -4 -4 -4 -4
5 5 4 5 4 4 5 5 4 3 3 3 3 2 2 1 1 1 1 1 1 1 1 1 0 -0 -0 -1 -1 -1 -1 -2 -3 -3 -3 -3 -4 -4 -4 -4 -4 -4 -5 -5
4 4 4 3 3 3 3 4 4 3 2 2 1 1 1 1 1 1 1 1 1 0 0 -0 -1 -1 -2 -2 -2 -2 -2 -3 -3 -3 -4 -4 -4 -4 -4 -4 -5 -5 -5 -6
5 4 3 4 5 4 4 4 4 2 2 1 1 1 1 1 1 0 0 0 -0 -0 -1 -1 -2 -2 -2 -2 -2 -3 -3 -3 -4 -4 -4 -5 -5 -5 -5 -6 -5 -6 -6 -6
Height
1509 1518 1523 1515 1516 1519 1522 1524 1525 1525 1524 1524 1526 1526 1520 1519 1519 1518 1518 1520 1522 1525 1527 1529 1531 1533 1535 1537 1538 1538 1538 1539 1539 1539 1539 1539 1538 1538 1537 1535 1534 1532 1529 1527
1514 1520 1515 1515 1516 1518 1521 1524 1525 1526 1525 1526 1526 1523 1515 1514 1514 1514 1515 1518 1520 1522 1525 1528 1530 1532 1534 1536 1536 1537 1537 1538 1538 1538 1538 1538 1537 1537 1536 1534 1532 1530 1528 1526
1516 1517 1515 1515 1520 1520 1527 1526 1527 1525 1527 1527 1528 1523 1512 1511 1511 1511 1511 1514 1517 1520 1523 1526 1528 1531 1533 1534 1535 1536 1536 1536 1537 1538 1538 1538 1537 1536 1535 1533 1531 1529 1528 1526
1516 1516 1514 1518 1523 1523 1523 1527 1525 1528 1533 1546 1534 1543 1517 1512 1511 1511 1511 1512 1515 1519 1523 1525 1528 1530 1531 1532 1533 1534 1534 1535 1537 1537 1537 1537 1536 1535 1534 1532 1530 1528 1527 1525
1520 1518 1519 1520 1524 1524 1526 1526 1528 1532 1539 1541 1537 1557 1521 1515 1512 1512 1511 1513 1515 1519 1522 1524 1526 1528 1530 1532 1533 1534 1534 1534 1535 1536 1536 1536 1535 1534 1532 1531 1529 1528 1526 1525
1522 1521 1522 1523 1524 1524 1526 1529 1536 1544 1549 1565 1543 1554 1533 1517 1510 1509 1511 1513 1516 1519 1521 1524 1526 1528 1530 1531 1532 1532 1533 1533 1534 1534 1535 1534 1534 1533 1531 1530 1529 1528 1526 1524
1525 1526 1524 1524 1526 1526 1528 1538 1567 1562 1574 1560 1551 1560 1526 1511 1510 1509 1509 1511 1515 1519 1522 1524 1526 1527 1528 1530 1531 1532 1532 1533 1533 1533 1533 1533 1532 1531 1530 1529 1528 1527 1525 1523
1537 1541 1528 1527 1528 1529 1532 1536 1557 1553 1565 1560 1549 1547 1520 1511 1510 1510 1509 1512 1516 1519 1521 1524 1525 1527 1527 1528 1529 1530 1530 1530 1531 1531 1531 1531 1530 1529 1528 1527 1526 1525 1523 1522
1526 1530 1529 1529 1528 1530 1533 1543 1540 1556 1562 1562 1553 1531 1512 1511 1510 1510 1510 1512 1515 1518 1521 1523 1524 1525 1526 1526 1527 1528 1529 1529 1530 1530 1530 1529 1529 1528 1526 1525 1524 1523 1521 1520
1516 1530 1530 1530 1529 1531 1530 1536 1546 1558 1543 1543 1548 1539 1531 1514 1511 1511 1512 1513 1515 1518 1520 1521 1521 1522 1523 1523 1524 1523 1524 1524 1525 1525 1526 1525 1525 1524 1524 1523 1522 1521 1519 1517
1514 1519 1534 1531 1532 1532 1536 1538 1543 1546 1550 1545 1545 1538 1518 1515 1511 1511 1513 1515 1516 1518 1519 1520 1519 1520 1520 1521 1522 1522 1523 1523 1523 1524 1524 1523 1522 1522 1522 1521 1519 1517 1515 1513
1517 1524 1544 1528 1530 1529 1529 1530 1534 1542 1541 1554 1552 1538 1513 1512 1512 1512 1514 1516 1517 1517 1517 1517 1516 1515 1515 1517 1518 1519 1520 1520 1520 1520 1519 1519 1518 1517 1516 1517 1516 1514 1513 1511
1515 1524 1547 1534 1534 1531 1530 1530 1531 1538 1544 1548 1546 1526 1513 1513 1513 1513 1514 1515 1516 1516 1516 1516 1516 1514 1513 1513 1513 1514 1515 1516 1517 1517 1517 1516 1515 1514 1513 1512 1510 1508 1508 1507
1516 1523 1520 1529 1517 1524 1528 1528 1529 1530 1550 1536 1532 1512 1513 1515 1514 1514 1515 1516 1516 1517 1517 1517 1516 1514 1513 1512 1510 1510 1511 1512 1513 1513 1514 1513 1512 1511 1509 1508 1507 1505 1504 1502
1517 1520 1527 1523 1522 1521 1519 1519 1528 1532 1522 1521 1514 1516 1508 1509 1511 1513 1515 1516 1516 1516 1516 1515 1514 1514 1513 1512 1510 1509 1509 1509 1510 1510 1509 1509 1509 1507 1506 1504 1503 1501 1498 1497
1518 1521 1522 1517 1517 1522 1520 1518 1519 1520 1518 1519 1515 1507 1502 1505 1508 1510 1511 1513 1514 1514 1515 1516 1516 1515 1514 1513 1512 1511 1509 1508 1507 1506 1506 1504 1504 1502 1500 1499 1497 1495 1493 1492
1519 1523 1526 1517 1521 1518 1515 1503 1505 1505 1503 1501 1508 1495 1499 1503 1503 1506 1508 1510 1511 1512 1513 1514 1513 1512 1512 1511 1511 1510 1509 1507 1506 1504 1503 1502 1499 1498 1496 1493 1491 1489 1487 1484
1522 1524 1527 1532 1523 1527 1493 1493 1495 1498 1496 1497 1496 1496 1498 1499 1504 1508 1510 1512 1514 1514 1515 1514 1513 1512 1511 1510 1509 1507 1506 1505 1504 1502 1500 1499 1496 1493 1491 1488 1486 1483 1481 1477
1517 1523 1525 1525 1532 1512 1487 1493 1495 1495 1492 1493 1495 1497 1499 1503 1506 1509 1511 1513 1513 1513 1513 1514 1513 1512 1511 1509 1507 1506 1504 1502 1501 1498 1496 1493 1491 1488 1485 1481 1478 1475 1473 1470
1517 1518 1523 1533 1528 1513 1493 1494 1494 1494 1501 1494 1495 1499 1501 1504 1511 1508 1508 1510 1512 1513 1512 1511 1511 1511 1509 1507 1504 1503 1500 1498 1496 1493 1490 1488 1484 1481 1477 1474 1470 1467 1464 1461
1520 1523 1523 1526 1529 1511 1495 1494 1494 1500 1501 1496 1497 1499 1502 1504 1504 1504 1506 1509 1510 1511 1510 1508 1507 1507 1506 1504 1501 1499 1496 1493 1490 1487 1483 1480 1476 1473 1470 1465 1462 1458 1454 1451
1511 1520 1523 1527 1528 1519 1494 1495 1498 1499 1496 1497 1498 1500 1502 1503 1504 1505 1507 1508 1508 1508 1507 1506 1505 1504 1502 1500 1497 1493 1490 1488 1484 1480 1476 1472 1468 1465 1461 1457 1453 1450 1446 1441
1506 1500 1504 1505 1502 1494 1495 1495 1495 1496 1497 1497 1499 1502 1505 1506 1506 1506 1506 1507 1507 1506 1505 1503 1501 1498 1496 1494 1492 1487 1483 1480 1475 1471 1468 1464 1459 1456 1452 1448 1445 1441 1437 1434
1496 1495 1497 1496 1496 1494 1494 1494 1494 1495 1496 1497 1499 1499 1500 1502 1504 1505 1504 1504 1504 1502 1500 1498 1495 1492 1488 1486 1483 1479 1475 1472 1467 1463 1458 1454 1450 1446 1443 1440 1436 1433 1428 1425
1495 1494 1494 1496 1493 1492 1492 1493 1494 1493 1494 1496 1498 1499 1500 1501 1500 1501 1501 1501 1500 1498 1496 1493 1490 1485 1481 1477 1473 1469 1466 1464 1459 1454 1449 1445 1441 1437 1433 1431 1427 1424 1420 1417
1491 1489 1494 1490 1488 1490 1490 1489 1490 1492 1493 1494 1496 1497 1498 1499 1499 1498 1498 1498 1495 1493 1490 1486 1482 1477 1472 1468 1463 1460 1457 1454 1450 1444 1440 1436 1432 1427 1424 1421 1415 1414 1411 1407
Wind_Speed
2 5 3 4 3 5 5 3 3 2 1 2 4 6 10 7 11 16 14 14 16 15 14 13 12 14 16 14 10 9 8 6 5 4 3 3 4 5 7 8 9 10 12 13
5 4 1 3 3 4 3 3 2 1 0 2 4 10 10 7 11 21 21 16 16 19 18 16 15 15 14 12 11 10 8 7 5 4 4 4 5 5 5 7 9 10 12 13
6 1 1 3 4 4 2 3 3 2 1 2 5 8 4 0 3 5 12 18 18 22 21 19 18 15 14 12 11 10 8 7 6 5 4 5 5 5 5 6 8 9 10 12
5 4 2 4 4 1 2 0 0 5 3 3 3 4 5 1 2 1 4 14 20 22 20 17 16 16 14 13 12 10 9 7 6 5 4 5 5 5 5 5 7 9 10 12
1 3 4 5 1 1 3 3 3 3 4 3 2 3 7 2 4 5 6 9 18 20 17 15 15 14 14 13 11 10 9 8 7 6 5 6 6 5 5 5 6 8 9 10
2 2 3 2 2 2 4 5 7 5 3 2 1 4 6 3 2 1 4 11 17 17 15 12 11 12 12 12 12 11 10 9 8 7 7 7 6 6 5 5 6 7 8 9
5 3 3 3 4 3 5 6 3 4 4 5 1 3 9 3 1 1 8 15 16 15 13 11 11 12 11 10 11 12 11 10 9 9 8 8 8 7 6 6 7 7 8 9
5 4 3 5 2 5 3 4 5 6 3 4 2 5 6 3 0 3 2 12 13 14 12 10 8 9 10 11 12 13 13 13 12 10 10 10 10 9 8 8 8 8 9 11
5 2 2 3 2 2 3 1 3 6 2 2 2 7 5 1 2 2 2 10 12 12 10 8 9 10 12 13 14 14 14 13 13 12 12 12 12 11 10 9 9 9 10 11
5 5 1 2 1 4 2 4 4 3 2 4 5 5 5 2 4 2 4 11 12 9 9 10 11 12 13 13 13 15 16 16 15 15 14 14 14 13 12 11 10 10 10 11
2 3 2 2 4 6 2 1 4 3 4 4 2 6 6 4 4 5 5 6 5 4 6 10 13 14 13 13 13 14 15 15 15 15 15 16 15 15 14 13 12 12 11 12
1 4 3 1 0 0 1 3 4 4 5 1 2 6 2 2 2 10 11 11 8 7 5 5 6 9 14 15 14 14 14 14 13 13 14 16 16 15 15 14 14 14 14 15
2 1 3 5 4 2 3 4 3 4 3 5 5 5 2 5 8 11 15 12 11 9 6 4 4 5 5 12 17 18 16 14 13 13 13 13 15 16 16 16 16 17 18 19
1 2 5 6 4 4 4 5 6 5 3 5 7 3 4 5 6 9 11 12 12 10 9 9 9 11 10 7 7 14 16 16 16 15 14 14 14 15 16 18 19 19 21 21
3 2 2 3 3 2 3 4 7 8 4 7 3 8 5 9 8 12 12 12 11 9 8 8 9 9 10 10 10 5 4 9 13 14 14 14 15 16 17 18 20 21 22 22
2 1 2 2 2 5 6 8 10 11 5 9 6 17 4 7 14 14 15 12 10 8 8 7 7 8 10 11 11 10 8 6 6 7 10 13 16 18 20 21 22 22 23 23
2 4 2 3 3 5 8 8 12 6 5 8 9 7 7 6 12 18 15 12 10 8 5 3 5 7 9 10 11 11 11 12 14 16 17 20 22 23 23 23 23 23 23 26
4 3 2 2 3 2 4 0 3 8 3 8 1 2 6 9 13 11 9 10 7 4 1 3 6 7 8 9 9 10 12 14 16 17 19 21 23 24 23 23 23 23 24 25
1 3 1 2 3 6 5 1 3 5 4 4 5 4 9 16 12 5 8 6 4 2 3 5 7 9 9 10 11 13 14 16 18 21 23 25 26 28 28 28 28 27 28 28
4 3 3 3 3 5 3 1 1 1 5 2 8 9 15 13 3 4 13 8 5 4 5 6 8 8 9 12 14 16 18 21 23 26 27 28 29 29 31 31 32 33 33 33
3 1 5 4 3 7 4 2 1 3 4 7 13 16 20 5 8 3 12 7 4 7 8 8 10 12 14 17 20 22 24 27 28 30 31 33 33 32 33 34 34 35 36 36
7 6 4 3 3 7 2 2 3 1 4 9 12 12 13 9 6 6 5 5 8 8 9 10 14 17 20 22 25 29 31 30 30 34 37 37 36 35 35 35 35 33 32 32
2 5 4 8 5 1 2 2 4 3 4 9 9 5 3 2 2 4 8 7 7 8 12 15 19 23 26 27 29 33 35 32 31 35 41 41 39 38 37 33 31 31 33 34
2 3 2 1 1 2 3 5 5 5 4 6 6 8 8 8 5 7 6 7 9 13 17 21 25 29 33 32 32 32 33 34 32 39 43 40 38 36 34 33 33 34 36 36
4 0 2 3 5 5 7 7 8 9 6 6 6 5 7 7 6 6 8 11 16 21 25 28 31 33 35 35 36 35 30 29 38 40 37 36 35 36 37 38 38 36 38 36
7 4 3 5 5 4 7 10 8 11 10 9 5 7 7 7 6 8 13 18 23 28 31 32 33 35 36 36 37 37 35 34 34 36 36 37 38 38 37 38 41 38 37 35
Wind_Direction
113 79 153 168 114 138 118 119 161 254 341 167 243 268 270 247 233 241 239 223 216 209 205 206 207 201 201 209 229 228 235 242 255 233 245 280 301 313 325 328 333 337 340 341
43 106 220 95 116 99 95 127 216 340 106 143 356 282 260 222 235 241 239 226 213 200 196 195 197 198 207 225 227 226 234 245 234 230 245 262 287 304 321 328 335 340 342 342
125 157 298 108 64 102 64 165 188 176 92 45 337 297 270 112 221 253 242 231 208 198 192 194 196 204 214 222 225 227 234 239 223 232 247 277 296 308 316 325 333 339 345 348
89 323 129 97 87 106 153 216 193 123 101 215 17 270 295 315 263 266 235 202 194 191 193 195 200 209 219 224 223 229 233 224 227 235 263 286 291 299 307 320 339 349 351 350
245 32 77 76 84 334 137 71 68 73 94 72 358 65 270 357 261 241 233 191 187 190 195 202 212 222 221 218 227 233 232 224 230 243 268 278 283 289 304 326 339 342 345 349
65 42 50 113 80 74 141 76 46 56 71 18 337 125 282 211 227 58 203 198 191 192 198 209 213 213 217 226 233 234 232 230 234 250 266 275 282 288 295 312 327 335 343 349
13 353 341 46 81 33 72 65 9 0 4 220 297 37 248 280 289 289 211 199 196 198 203 208 214 218 226 237 244 239 237 238 242 256 268 274 275 279 286 302 314 326 339 344
140 326 19 350 50 168 74 133 148 199 195 268 15 241 256 212 35 348 324 201 194 196 204 218 228 235 245 251 251 246 243 241 245 258 269 270 269 272 278 292 305 319 330 336
139 21 320 48 10 72 182 103 144 105 16 38 235 285 321 162 340 357 57 181 185 195 210 229 242 254 259 261 259 256 253 251 253 264 271 274 275 276 279 287 298 308 320 329
204 95 25 329 85 30 73 155 69 3 182 260 291 279 238 284 230 116 125 171 185 201 220 242 255 264 265 267 260 254 250 249 251 260 269 273 272 272 274 282 290 298 308 318
140 96 282 40 202 177 116 118 61 118 143 180 267 262 211 235 231 177 142 144 171 208 248 262 264 261 259 258 256 259 259 260 263 271 278 280 277 274 275 280 283 287 295 301
23 120 145 191 302 329 198 197 155 131 217 212 153 273 0 356 29 128 119 123 113 97 67 16 327 274 248 253 258 259 263 264 268 276 282 282 277 274 274 277 281 287 292 294
167 26 62 357 0 356 223 200 140 108 72 202 150 261 73 107 104 131 134 127 110 96 79 44 3 356 306 264 255 252 257 262 266 276 286 291 289 284 281 281 281 284 287 290
59 134 168 186 195 135 194 197 180 150 139 187 223 233 218 196 167 153 140 123 104 87 76 69 58 48 36 360 298 258 252 253 258 268 277 287 291 289 287 288 290 291 294 294
103 191 94 275 259 218 239 200 187 205 195 185 263 206 229 203 186 169 146 134 123 109 91 70 58 47 39 36 33 17 285 264 267 271 274 283 290 293 293 293 293 294 292 292
1 176 106 306 27 209 253 224 215 224 217 258 279 277 193 154 164 164 167 160 138 112 88 68 47 28 19 17 14 10 9 352 333 302 292 291 290 291 293 295 295 295 292 290
123 135 110 257 352 320 286 222 200 194 197 192 218 239 166 181 177 171 167 168 155 145 131 83 27 8 358 351 346 337 328 320 312 309 308 306 304 303 303 300 296 292 290 294
130 97 61 296 8 274 260 114 170 204 225 218 228 213 184 163 169 169 175 172 162 156 134 334 347 348 342 339 333 333 332 331 325 321 316 312 309 306 305 305 304 300 299 297
83 115 133 207 210 293 291 134 150 170 281 189 190 124 136 136 134 146 171 176 188 252 297 307 316 319 327 332 332 330 328 329 327 323 319 317 314 310 306 301 298 297 295 293
85 88 144 147 206 239 260 176 96 140 289 147 152 146 145 142 156 236 188 198 231 262 280 302 312 315 324 323 322 322 325 327 327 323 319 315 311 307 302 299 295 293 291 289
136 140 206 201 253 286 269 204 36 96 271 162 166 164 171 188 213 188 185 205 256 296 294 301 299 304 311 314 312 312 315 317 319 318 315 312 309 306 303 303 302 298 295 293
168 154 196 142 195 276 166 112 171 241 135 175 177 182 188 200 177 180 196 279 278 269 290 300 300 306 309 308 305 305 303 310 312 317 316 311 307 305 304 304 302 299 298 298
226 196 182 189 212 232 213 230 304 210 211 192 199 196 202 197 214 256 268 251 282 305 318 317 315 308 303 303 303 301 299 303 302 306 310 308 305 304 303 303 301 300 302 303
261 176 218 115 220 233 266 269 257 230 234 209 211 191 219 267 259 257 276 295 309 317 319 319 314 307 304 304 302 298 298 295 295 302 306 303 304 304 304 304 302 302 303 305
219 92 178 265 274 294 264 270 262 232 215 201 213 248 253 254 258 276 294 300 308 310 309 308 306 305 303 303 301 301 301 295 297 301 301 301 302 300 300 299 299 301 301 303
220 205 189 266 277 256 275 307 271 227 218 219 226 243 255 264 282 297 297 303 305 305 304 304 305 307 306 305 303 303 303 303 302 301 299 299 300 300 299 299 299 299 301 301